This is the latest recevied weather packets stored in our database for station/object KC1DMA. If no packets are shown the sender has not sent any weather packets the latest 10 day(s).
| Time | Temp. | Humidity | Pressure | Rain* | Wind** | Luminosity | Snow |
|---|---|---|---|---|---|---|---|
| 1777592936 | 10.56° C | 96% | 1009.4 hPa | - | - | 2 W/m² | - |
| 1777592631 | 10.56° C | 96% | 1009.1 hPa | - | - | 3 W/m² | - |
| 1777592328 | 10.56° C | 97% | 1009.1 hPa | - | - | 5 W/m² | - |
| 1777592023 | 11.11° C | 97% | 1009.1 hPa | - | - | 6 W/m² | - |
| 1777591721 | 11.11° C | 96% | 1009.2 hPa | - | - | 8 W/m² | - |
| 1777591415 | 11.11° C | 96% | 1009 hPa | - | - | 10 W/m² | - |
| 1777591112 | 11.11° C | 96% | 1008.9 hPa | - | - | 12 W/m² | - |
| 1777590807 | 11.11° C | 96% | 1008.8 hPa | - | - | 11 W/m² | - |
| 1777590504 | 11.11° C | 96% | 1009 hPa | - | - | 14 W/m² | - |
| 1777590195 | 11.67° C | 96% | 1009 hPa | - | - | 16 W/m² | - |
| 1777589892 | 11.67° C | 95% | 1008.8 hPa | - | - | 6 W/m² | - |
| 1777589588 | 11.67° C | 93% | 1008.7 hPa | - | - | 8 W/m² | - |
| 1777589285 | 11.67° C | 92% | 1008.7 hPa | - | - | 24 W/m² | - |
| 1777588983 | 12.22° C | 90% | 1008.5 hPa | - | - | 13 W/m² | - |
| 1777588678 | 12.22° C | 89% | 1008.4 hPa | - | - | 16 W/m² | - |
| 1777588374 | 12.22° C | 88% | 1008.4 hPa | - | - | 24 W/m² | - |
| 1777588071 | 12.22° C | 88% | 1008.3 hPa | - | - | 40 W/m² | - |
| 1777587766 | 12.22° C | 88% | 1008.4 hPa | - | - | 45 W/m² | - |
| 1777587465 | 12.22° C | 88% | 1008.4 hPa | - | - | 32 W/m² | - |
| 1777587162 | 12.22° C | 88% | 1008.2 hPa | - | - | 22 W/m² | - |
| 1777586857 | 12.22° C | 87% | 1008.1 hPa | - | - | 28 W/m² | - |
| 1777586553 | 12.22° C | 87% | 1008 hPa | - | - | 39 W/m² | - |
| 1777586244 | 12.78° C | 85% | 1008.2 hPa | - | - | 73 W/m² | - |
| 1777585941 | 12.78° C | 84% | 1008.2 hPa | - | - | 101 W/m² | - |
| 1777585636 | 12.78° C | 85% | 1008 hPa | - | - | 263 W/m² | - |
* Rain since midnight (hover to see other rain measurements)
** Current wind speed in m/s (hover to see current wind gust speed)